Regional Weather Roundup
Issued by NWS Little Rock, AR

Home | Current Version | Previous Version | Graphics & Text | Print | Product List | Glossary On
Versions: 1 2 3 4 5 6 7 8 9 10 11 12 13 14 15 16 17 18 19 20 21 22 23 24 25 26 27 28 29 30 31 32 33 34 35 36 37 38 39 40 41 42 43 44 45 46 47 48 49 50
000
ASUS44 KLZK 021905
RWRLZK

WEATHER ROUNDUP FOR ARKANSAS
NATIONAL WEATHER SERVICE LITTLE ROCK AR
100 PM CST FRI DEC 02 2016

NOTE: "FAIR" INDICATES FEW OR NO CLOUDS BELOW 12,000 FEET WITH NO
SIGNIFICANT WEATHER AND/OR OBSTRUCTIONS TO VISIBILITY.

ARZ001-003-010-029-022000-
NORTHWEST ARKANSAS

CITY           SKY/WX    TMP DP  RH WIND       PRES   REMARKS
FAYETTEVILLE   PTSUNNY   61  31  32 VRB6      30.21S
FORT SMITH     PTSUNNY   61  33  35 NE7       30.20F
HARRISON       CLOUDY    55  29  36 SE5       30.23S
BENTONVILLE    PTSUNNY   57  28  33 CALM      30.23S
ROGERS         CLOUDY    58  32  37 W8        30.22F
SILOAM SPGS    CLOUDY    59  30  33 SW6       30.20F
HIGHFILL       MOSUNNY   58  31  35 W5        30.21S
SPRINGDALE     PTSUNNY   59  28  31 CALM      30.23S
$$

ARZ004-005-016-022000-
NORTH CENTRAL ARKANSAS

CITY           SKY/WX    TMP DP  RH WIND       PRES   REMARKS
BATESVILLE     SUNNY     61  34  36 CALM      30.24F
FLIPPIN        SUNNY     55  30  38 CALM      30.22S
MTN HOME       SUNNY     54  32  43 S3        30.24S
$$

ARZ040-041-022000-
WEST CENTRAL ARKANSAS

CITY           SKY/WX    TMP DP  RH WIND       PRES   REMARKS
MENA           SUNNY     63  32  31 E3        30.20F
MOUNT IDA      SUNNY     63  26  24 VRB3      30.19F
$$

ARZ009-017-025-026-028-022000-
NORTHEAST ARKANSAS

CITY           SKY/WX    TMP DP  RH WIND       PRES   REMARKS
CORNING        FAIR      54  32  43 NE5       30.27F
JONESBORO      SUNNY     54  37  52 E7        30.25F
NEWPORT        SUNNY     55  38  52 NE3       30.26
WALNUT RIDGE   SUNNY     54  34  47 NE6       30.26F
BLYTHEVILLE    SUNNY     59  33  37 NE5       30.26F
NW BLYTHEVILLE SUNNY     54  34  47 NE7       30.26S
$$

ARZ022-023-033-042-044-022000-
CENTRAL ARKANSAS

CITY           SKY/WX    TMP DP  RH WIND       PRES   REMARKS
LITTLE ROCK    PTSUNNY   61  29  29 VRB3      30.23F
N LITTLE ROCK    N/A     61  31  32 S6        30.25F
JACKSONVILLE   SUNNY     63  30  29 VRB6      30.22F
SEARCY         SUNNY     63  32  31 S9        30.25F
HOT SPRINGS    SUNNY     63  29  27 VRB3      30.23F
RUSSELLVILLE   SUNNY     59  32  36 SW7       30.22F
$$

ARZ036-022000-
EAST ARKANSAS

CITY           SKY/WX    TMP DP  RH WIND       PRES   REMARKS
WEST MEMPHIS   SUNNY     59  34  39 SW7       30.24F
$$

ARZ050-053-066-070-073-022000-
SOUTHWEST ARKANSAS

CITY           SKY/WX    TMP DP  RH WIND       PRES   REMARKS
ARKADELPHIA    FAIR      58  34  40 CALM      30.23F
CAMDEN         MOSUNNY   64  28  25 E3        30.21F
TEXARKANA      MOSUNNY   62  33  33 E5        30.19F
EL DORADO      MOSUNNY   62  30  29 SE7       30.20F
DE QUEEN       SUNNY     62  34  35 NE5       30.18F
$$

ARZ056-057-069-022000-
SOUTHEAST ARKANSAS

CITY           SKY/WX    TMP DP  RH WIND       PRES   REMARKS
PINE BLUFF     MOSUNNY   61  36  39 NE5       30.23F
STUTTGART      SUNNY     61  34  36 CALM      30.24F
MONTICELLO     MOSUNNY   64  28  25 SE7       30.23F

$$





USA.gov is the U.S. government's official web portal to all federal, state and local government web resources and services.